SL-4 R/B (44551 NORAD) Tracking and Keplerian Element Data

This shows tracking and keplerian element data for the satellite.

Feedback or suggestion? Click here.




ElementValue
Catalog44551
NameSL-4 R/B
Epoch Orbit47
Epoch Day271.51191004
Epoch Year2019
RAAN207.1195
Inclination51.6685
Eccentricity0.0011478
Argument of Perigee30.6669
Mean Anonmoly333.5408
Mean Motion16.48931479
Decay Rate0.11952124
L11 44551U 19064B 19271.51191004 .11952124 12813-4 14559-3 0 9991
L22 44551 51.6685 207.1195 0011478 30.6669 333.5408 16.48931479 477

Live tracking and technical data element details for SL-4 R/B (NORAD 44551). SL-4 R/B can be tracked NOW for your location showing map with azimuth and elevation plus other details from your city location.

Track the satellite on the map from your city or location and see movement details for azimuth, elevation, latitude, longitude, range, height, and movement on the map or in text.







IsCatalogInMostPopularTable: catalog: 44551, numindb: 16
Update: records affected: 1



GetName: 44551 SL-4 R/B

Hit Count: updated at: Thu, 12 Dec 2019 00:23:27 GMT